486  
ASUS43 KMPX 031510  
RWRMN  
WEATHER ROUNDUP FOR MINNESOTA  
NATIONAL WEATHER SERVICE TWIN CITIES/CHANHASSEN MN  
1000 AM CDT FRI JUL 03 2015  
 
NOTE: "FAIR" INDICATES FEW OR NO CLOUDS BELOW 12,000 FEET WITH NO  
SIGNIFICANT WEATHER AND/OR S TO VISIBILITY
. N/A MEANS  
CURRENT SKY AND/OR WEATHER CONDITIONS ARE NOT AVAILABLE.  
 
MNZ060>063-068>070-031600-  
TWIN CITIES METRO  
 
CITY SKY/WX TMP DP RH WIND PRES REMARKS
 
TWIN CITIES MOSUNNY 71 55 56 W6 29.97F  
ST PAUL SUNNY 70 57 63 SW6 29.97F  
CRYSTAL SUNNY 73 54 51 W12 29.95F  
BLAINE SUNNY 73 57 56 SW6 29.96F  
LAKEVILLE SUNNY 66 57 72 W7 29.99S  
EDEN PRAIRIE SUNNY 68 59 73 W6 29.97F  
SOUTH ST PAUL SUNNY 70 55 58 W6 29.97S  
LAKE ELMO FAIR 70 55 60 W8 29.98S  

 
MNZ001>005-007-008-013>017-022>024-027-028-031600-  
NORTHWEST MINNESOTA  
 
CITY SKY/WX TMP DP RH WIND PRES REMARKS
 
BEMIDJI PTSUNNY 69 64 85 NW7 29.93S HAZE  
HALLOCK N/A 70 66 88 NW5 29.94R FOG  
ROSEAU SUNNY 70 63 78 NW5 29.93S HAZE  
WARROAD SUNNY 70 64 83 NW6 29.93R HAZE  
THIEF RVR FALL SUNNY 68 64 88 W5 29.94S  
CROOKSTON SUNNY 70 66 88 N3 29.94S FOG  
FOSSTON PTSUNNY 70 63 78 CALM 29.95S HAZE  
DETROIT LAKES MOSUNNY 68 63 83 NW5 29.96F FOG  
MOORHEAD SUNNY 70 64 83 CALM 29.95S FOG  
PARK RAPIDS CLOUDY 70 63 78 W8 29.94S HAZE  
MAHNOMEN CLOUDY 66 64 90 N5 29.95S FOG  

 
MNZ006-009>011-018-025>026-031600-  
NORTH CENTRAL MINNESOTA  
 
CITY SKY/WX TMP DP RH WIND PRES REMARKS
 
BAUDETTE SUNNY 71 63 75 NW9 29.91R HAZE  
FLAG ISLAND SUNNY 68 61 77 NW8 29.90S HAZE  
INTL FALLS PTSUNNY 70 64 81 NW9 29.88S HAZE  
WASKISH SUNNY 72 64 78 W6 29.91S HAZE  
BIG FORK SUNNY 72 63 73 NW5 29.91F HAZE  
LONGVILLE PTSUNNY 68 63 83 W5 29.92F  
GRAND RAPIDS MOSUNNY 70 61 73 NW9 29.91F  
CRANE LAKE MOSUNNY 66 63 88 NW5 29.89S  
ORR SUNNY 70 61 73 CALM 29.87S  
COOK N/A 70 N/A N/A W5 29.89F  
WALKER CLOUDY 67 62 86 NW3 29.93S  

 
MNZ012-019>021-037-031600-  
NORTHEAST MINNESOTA  
 
CITY SKY/WX TMP DP RH WIND PRES REMARKS
 
DULUTH MOSUNNY 67 58 72 NW9 29.90F  
ELY MOSUNNY 68 61 77 W5 29.88S  
HIBBING CLOUDY 69 61 75 NW7 29.90S  
DULUTH HARBOR MOSUNNY 70 61 73 W12 29.88F  
TWO HARBORS MOSUNNY 72 63 73 W7 29.86F  
SILVER BAY MOSUNNY 70 59 68 W3 29.85S  
GRAND MARAIS N/A 52 48 86 W9 29.81F  
G MARAIS ARPRT MOSUNNY 66 57 72 W5 29.86F HAZE  

 
MNZ029>031-032-039>041-046>048-054>057-064-031600-  
WEST CENTRAL MINNESOTA  
 
CITY SKY/WX TMP DP RH WIND PRES REMARKS
 
FERGUS FALLS MOSUNNY 66 64 94 W3 29.96S  
WHEATON SUNNY 70 63 78 W6 29.97F  
MORRIS SUNNY 72 64 78 W5 29.95F  
ALEXANDRIA SUNNY 69 62 78 W9 29.98S  
ELBOW LAKE FAIR 67 63 85 W7 29.96F  
WADENA SUNNY 66 61 82 W7 29.95S  
GLENWOOD SUNNY 68 61 77 W8 29.97F  
APPLETON SUNNY 72 61 68 W3 29.96F  
BENSON SUNNY 70 61 73 CALM 29.97F  
ORTONVILLE SUNNY 72 63 73 CALM 29.97S  
MADISON SUNNY 72 61 68 W7 29.97S  
WILLMAR FAIR 68 63 83 W6 29.99S  

 
MNZ033>034-036-042>043-049>051-058-059-031600-  
CENTRAL MINNESOTA  
 
CITY SKY/WX TMP DP RH WIND PRES REMARKS
 
ST CLOUD SUNNY 69 59 70 SW3 29.95F  
SAUK CENTRE FAIR 69 61 76 W7 29.97S  
PAYNESVILLE SUNNY 67 57 72 SW7 29.97F  
AITKIN MOSUNNY 70 61 73 W5 29.91F  
PINE RIVER N/A 68 61 77 W6 29.96F  
BRAINERD MOSUNNY 69 60 73 W8 29.94F  
STAPLES SUNNY 68 61 77 W8 29.95S  
LONG PRAIRIE FAIR 68 61 77 SW8 29.96F  
LITTLE FALLS SUNNY 68 59 73 W6 29.95S  
LITCHFIELD SUNNY 70 61 73 W3 29.98F  
BUFFALO SUNNY 69 58 68 SW5 29.98F  
MAPLE LAKE SUNNY 70 60 71 W5 29.98F  

 
MNZ037-044-045-052-053-031600-  
EAST CENTRAL MINNESOTA  
 
CITY SKY/WX TMP DP RH WIND PRES REMARKS
 
PRINCETON SUNNY 72 59 64 W7 29.95F  
MORA MOSUNNY 64 55 72 W3 29.96F  
CAMBRIDGE MOSUNNY 72 55 56 CALM 29.94S  
RUSH CITY MOSUNNY 68 56 66 SW5 29.95F  
MOOSE LAKE PTSUNNY 68 59 73 SW5 29.90F  
HINCKLEY PTSUNNY 66 57 72 SW5 29.94F  
CLOQUET MOSUNNY 70 55 60 W7 29.91F  
MCGREGOR PTSUNNY 68 59 73 W6 29.92F  

 
MNZ071>073-080-081-089-090-097-098-031600-  
SOUTHWEST MINNESOTA  
 
CITY SKY/WX TMP DP RH WIND PRES REMARKS
 
MONTEVIDEO SUNNY 72 63 73 NW6 29.99S  
GRANITE FALLS SUNNY 67 59 73 CALM 30.00F  
CANBY SUNNY 71 62 73 W8 29.99F  
MARSHALL SUNNY 70 55 60 W8 29.99S  
REDWOOD FALLS SUNNY 69 59 70 VRB5 29.99F  
OLIVIA SUNNY 68 59 73 W5 29.98F  
PIPESTONE SUNNY 64 57 77 W6 30.03S  
WINDOM SUNNY 70 61 73 W8 30.02S  
WORTHINGTON SUNNY 64 57 77 W6 30.03S  
JACKSON SUNNY 68 61 77 W8 30.03S  
TRACY SUNNY 69 59 70 W7 30.01S  
SLAYTON SUNNY 66 58 76 CALM 30.03F  

 
MNZ065>067-074>077-082>085-091>093-031600-  
SOUTH CENTRAL MINNESOTA  
 
CITY SKY/WX TMP DP RH WIND PRES REMARKS
 
MANKATO SUNNY 66 55 68 SW6 30.00F  
NEW ULM SUNNY 66 57 72 W3 30.00S  
ST JAMES SUNNY 70 61 73 W5 30.01F  
FAIRMONT SUNNY 70 55 60 NW7 30.01S  
GLENCOE SUNNY 69 59 71 W5 29.98F  
FARIBAULT SUNNY 68 57 68 SW3 30.00S  
OWATONNA SUNNY 68 55 64 W6 30.00F  
WASECA SUNNY 64 55 72 SW5 30.01F  
ALBERT LEA SUNNY 70 54 56 NW6 30.01S  

 
MNZ078>079-086>088-094>096-031600-  
SOUTHEAST MINNESOTA  
 
CITY SKY/WX TMP DP RH WIND PRES REMARKS
 
ROCHESTER SUNNY 68 55 63 NW8 30.02S  
RED WING SUNNY 70 55 60 W5 29.97F  
STANTON SUNNY 68 57 68 W3 29.98F  
DODGE CENTER SUNNY 68 55 64 NW7 30.01S  
WINONA SUNNY 70 59 68 CALM 29.99S  
AUSTIN SUNNY 70 55 60 NW6 30.00F  
PRESTON SUNNY 66 55 66 NW5 30.01F  

 
ABBREVIATIONS USED IN REMARKS  
TC - TEMPERATURES IN CELSIUS  
WCI - WIND CHILL INDEX  
HX - HEAT INDEX  
VSB - VISIBILITY  

 
 
CLICK HERE TO GO TO PREVIOUS BULLETINS.

The Nexlab MN Page Main Text Page